• Processing (Info)

  • MPEC 2019-Q36 : 2019 QG

    The following Minor Planet Electronic Circular may be linked-to from your own Web pages, but must not otherwise be redistributed electronically.

    A form allowing access to any MPEC is at the bottom of this page.


    Read MPEC 2019-Q35 Read MPEC 2019-Q37


    M.P.E.C. 2019-Q36                                Issued 2019 August 22, 12:31 UT  
    
         The Minor Planet Electronic Circulars contain information on unusual
             minor planets and routine data on comets.  They are published
        on behalf of Division F of the International Astronomical Union by the
              Minor Planet Center, Smithsonian Astrophysical Observatory,
                              Cambridge, MA 02138, U.S.A.
    
                 Prepared using the Tamkin Foundation Computer Network
    
                                  MPC@CFA.HARVARD.EDU
                URL https://www.minorplanetcenter.net/    ISSN 1523-6714
    
                                     2019 QG                                 
    
    
    Observations:
         K19Q00G  C2019 08 10.45344319 11 11.269+74 24 15.42         20.2 GVEQ036F51
         K19Q00G  C2019 08 10.46861919 10 53.931+74 23 22.14         20.3 GVEQ036F51
         K19Q00G  C2019 08 10.49164419 10 27.775+74 22 00.12         20.6 GVEQ036F51
         K19Q00G  C2019 08 12.40883818 41 33.927+72 36 01.30         19.6 GVEQ036F51
         K19Q00G  C2019 08 12.43534518 41 11.089+72 34 24.45         19.8 GVEQ036F51
         K19Q00G  C2019 08 12.45408818 40 55.176+72 33 15.02         20.1 GVEQ036F51
         K19Q00G  C2019 08 12.45473818 40 54.601+72 33 12.56         19.6 GVEQ036F51
         K19Q00G  C2019 08 13.44966218 28 58.703+71 36 42.83         20.5 GVEQ036F51
         K19Q00G  C2019 08 13.47235718 28 42.263+71 35 17.53         20.3 GVEQ036F51
         K19Q00G* C2019 08 21.33941517 34 12.14 +64 36 19.4          19.29oVEQ036T05
         K19Q00G  C2019 08 21.34224817 34 11.34 +64 36 11.2          19.15oVEQ036T05
         K19Q00G  C2019 08 21.34797317 34 09.51 +64 35 54.8          19.59oVEQ036T05
         K19Q00G  C2019 08 21.35770717 34 06.74 +64 35 22.8          19.27oVEQ036T05
         K19Q00G  C2019 08 21.40993517 33 51.16 +64 32 38.8          19.07oVEQ036T05
         K19Q00G  C2019 08 21.41526317 33 49.60 +64 32 20.4          19.20oVEQ036T05
         K19Q00G  C2019 08 21.43721717 33 43.65 +64 31 11.4          19.18oVEQ036T05
         K19Q00G KC2019 08 21.84368217 32 09.00 +64 11 42.5          20.0 GVEQ036G34
         K19Q00G KC2019 08 21.84809117 32 07.56 +64 11 29.2          19.2 GVEQ036G34
         K19Q00G KC2019 08 21.85250017 32 06.38 +64 11 16.2          19.6 GVEQ036G34
         K19Q00G KC2019 08 21.85317 17 32 07.40 +64 11 23.4          19.6 VqEQ036I93
         K19Q00G KC2019 08 21.85769 17 32 06.16 +64 11 10.4          19.7 VqEQ036I93
         K19Q00G KC2019 08 21.86221 17 32 04.89 +64 10 57.5          19.7 VqEQ036I93
         K19Q00G KC2019 08 21.87238 17 32 00.74 +64 10 24.2          19.7 RVEQ036K63
         K19Q00G KC2019 08 21.87707 17 31 59.50 +64 10 10.1          19.6 RVEQ036K63
         K19Q00G KC2019 08 21.88250 17 31 57.91 +64 09 54.1          18.8 RVEQ036K63
         K19Q00G KC2019 08 22.14887417 30 51.503+63 56 22.72         20.7 GVEQ036Z84
         K19Q00G KC2019 08 22.15727617 30 49.775+63 55 57.25         21.4 GVEQ036Z84
         K19Q00G KC2019 08 22.16869 17 30 51.46 +63 56 28.1          20.3 GVEQ036V01
         K19Q00G KC2019 08 22.17264 17 30 50.49 +63 56 17.3          20.7 GVEQ036V01
         K19Q00G KC2019 08 22.17661 17 30 49.42 +63 56 06.4          20.3 GVEQ036V01
         K19Q00G KC2019 08 22.18057 17 30 48.30 +63 55 54.1          20.3 GVEQ036V01
    
    Observer details:
    F51 Pan-STARRS 1, Haleakala.  Observers J. Bulger, K. Chambers, T. Lowe,
        E. Magnier, A. Schultz, M. Willman.  Measurers S. Chastel, M. Huber,
        Y. Ramanjooloo, R. Wainscoat, R. Weryk.  1.8-m Ritchey-Chretien + CCD.
    G34 Oberfrauendorf.  Observer T. Felber.  0.35-m f/6.7 Schmidt-Cassegrain + CCD.
    I93 St Pardon de Conques.  Observer F. Losse.  0.40-m f/3.7 reflector + CCD.
    K63 G. Pascoli Observatory, Castelvecchio Pascoli.  Observer R. Bacci.  
        0.41-m f/3.2 Newtonian reflector + CCD.
    T05 ATLAS-HKO, Haleakala.  Observers L. Denneau, J. Tonry, A. Heinze,
        H. Weiland, H. Flewelling.  Measurers L. Denneau, J. Tonry, A. Heinze,
        H. Weiland, H. Flewelling, B. Stalder, A. Fitzsimmons, D. Young,
        N. Erasmus.  0.5-m reflector + CCD.
    V01 Mountainville Observatory, Alpine.  Observer B. Sheets.  
        0.35-m f/11.0 Schmidt-Cassegrain + CCD.
    Z84 Calar Alto-Schmidt.  Observer M. Micheli.  Measurers M. Micheli, D. Koschny,
        E. Schwab.  0.8-m f/3 Schmidt + CCD.
    
    Orbital elements:
    2019 QG                                             PHA, Earth MOID = 0.0457 AU
    Epoch 2019 Apr. 27.0 TT = JDT 2458600.5                 Veres
    M  28.83717              (2000.0)            P               Q
    n   1.32199305     Peri.  216.03099     -0.81903503     -0.53577578
    a   0.8222110      Node   290.31598     +0.56418602     -0.68707103
    e   0.2378390      Incl.   12.64214     +0.10428689     -0.49079294
    P   0.75           H   21.8           G   0.15           U   7
    Residuals in seconds of arc
    190810 F51  0.1-  0.0     190821 T05  0.2-  1.4+    190821 K63  0.1-  0.2-
    190810 F51  0.2+  0.0     190821 T05  1.0+  0.4-    190821 K63  0.3+  0.3-
    190810 F51  0.1-  0.1-    190821 T05  0.5-  0.2+    190821 K63  0.2-  0.0
    190812 F51  0.0   0.1+    190821 T05  0.8-  1.2-    190822 Z84  0.3-  0.2-
    190812 F51  0.0   0.0     190821 T05  0.4+  0.1+    190822 Z84  0.0   0.2+
    190812 F51  0.1+  0.0     190821 G34  1.0+  0.4+    190822 V01  0.9-  0.7-
    190812 F51  0.1-  0.0     190821 G34  0.4-  0.1+    190822 V01  0.0   0.0
    190813 F51  0.0   0.0     190821 G34  0.1-  0.2+    190822 V01  0.2+  0.7+
    190813 F51  0.1-  0.1-    190821 I93  0.2-  0.3-    190822 V01  0.1+  0.0
    190821 T05  0.0   0.4-    190821 I93  0.2+  0.1-
    190821 T05  0.4+  0.1+    190821 I93  0.3+  0.3+
    
    Ephemeris:
    2019 QG                  a,e,i = 0.82, 0.24, 13                  q = 0.6267
    Date    TT    R. A. (2000) Decl.     Delta      r    Elong.  Phase     V
    2019 07 23    02 30 35.7 +55 57 21   0.07662 0.9926    70.1   105.7    20.1
    ...
    2019 08 07    20 31 47.1 +76 58 15   0.09943 1.0127    86.3    88.1    19.9
    ...
    2019 08 15    18 13 40.2 +70 08 34   0.1195  1.0172    88.7    84.6    20.2
    ...
    2019 08 21    17 35 45.6 +64 52 15   0.1355  1.0177    88.7    83.7    20.4
    2019 08 22    17 31 33.9 +64 04 07   0.1382  1.0176    88.6    83.6    20.5
    2019 08 23    17 27 45.9 +63 17 19   0.1408  1.0174    88.4    83.6    20.5
    ...
    2019 08 29    17 10 56.4 +59 03 09   0.1567  1.0147    87.2    83.9    20.7
    ...
    2019 09 06    16 57 42.4 +54 24 53   0.1765  1.0072    84.7    85.3    21.0
    ...
    2019 09 21    16 42 22.8 +47 47 27   0.2073  0.9818    77.9    90.2    21.5
    
    A. U. Tomatic                (C) Copyright 2019 MPC           M.P.E.C. 2019-Q36
    


    Read MPEC 2019-Q35 Read MPEC 2019-Q37


    MPEC number:

    Enter an MPEC number in one of the following forms:

    • 1997-B01 (the full form)
    • J97B01 (the packed version of the full form)
    • B01 (the abbreviated form)